This is the latest recevied weather packets stored in our database for station/object DB0TV-13. If no packets are shown the sender has not sent any weather packets the latest 10 day(s).
| Time | Temp. | Humidity | Pressure | Rain* | Wind** | Luminosity | Snow |
|---|---|---|---|---|---|---|---|
| 1777037420 | 15° C | 58% | 1022.1 hPa | 0 mm | - | 712 W/m² | - |
| 1777036820 | 15° C | 60% | 1022.1 hPa | 0 mm | - | 718 W/m² | - |
| 1777036220 | 14.44° C | 59% | 1022.2 hPa | 0 mm | - | 717 W/m² | - |
| 1777035620 | 14.44° C | 60% | 1022.2 hPa | 0 mm | - | 747 W/m² | - |
| 1777035020 | 14.44° C | 62% | 1022.2 hPa | 0 mm | - | 741 W/m² | - |
| 1777034420 | 13.89° C | 63% | 1022.4 hPa | 0 mm | - | 775 W/m² | - |
| 1777033820 | 13.33° C | 63% | 1022.5 hPa | 0 mm | - | 771 W/m² | - |
| 1777033219 | 13.33° C | 64% | 1022.5 hPa | 0 mm | - | 792 W/m² | - |
| 1777032620 | 13.33° C | 66% | 1022.5 hPa | 0 mm | - | 803 W/m² | - |
| 1777032020 | 12.78° C | 66% | 1022.6 hPa | 0 mm | - | 769 W/m² | - |
| 1777031420 | 12.22° C | 66% | 1022.7 hPa | 0 mm | - | 798 W/m² | - |
| 1777030819 | 12.22° C | 65% | 1022.6 hPa | 0 mm | - | 792 W/m² | - |
| 1777030220 | 11.67° C | 67% | 1022.6 hPa | 0 mm | - | 792 W/m² | - |
| 1777029619 | 11.67° C | 68% | 1022.7 hPa | 0 mm | - | 818 W/m² | - |
| 1777029020 | 10.56° C | 70% | 1022.6 hPa | 0 mm | - | 803 W/m² | - |
| 1777028420 | 10.56° C | 71% | 1022.7 hPa | 0 mm | - | 811 W/m² | - |
| 1777027820 | 10.56° C | 74% | 1022.6 hPa | 0 mm | - | 780 W/m² | - |
| 1777027219 | 10° C | 75% | 1022.8 hPa | 0 mm | - | 743 W/m² | - |
| 1777026620 | 10° C | 77% | 1022.8 hPa | 0 mm | - | 741 W/m² | - |
| 1777026020 | 8.89° C | 76% | 1022.8 hPa | 0 mm | - | 748 W/m² | - |
| 1777025420 | 8.89° C | 80% | 1022.9 hPa | 0 mm | - | 766 W/m² | - |
| 1777024820 | 7.78° C | 81% | 1022.9 hPa | 0 mm | - | 714 W/m² | - |
| 1777024219 | 7.78° C | 82% | 1023 hPa | 0 mm | - | 719 W/m² | - |
| 1777023620 | 7.22° C | 82% | 1023 hPa | 0 mm | - | 692 W/m² | - |
| 1777023020 | 7.22° C | 86% | 1023 hPa | 0 mm | - | 729 W/m² | - |
* Rain latest hour (hover to see other rain measurements)
** Current wind speed in m/s (hover to see current wind gust speed)